Location: Gokavaram
(16.9752°N, 81.0696°E)
Time: 12:31:52
(UTC+00:00)

Exosat Rocket - Pass Details

Date: 15 May 2026
Orbit: 760 x 2513 km, 72.3° (Epoch: 7 June)

Event Time Altitude Azimuth Distance (km) Brightness Sun altitude
Exits shadow 23:11:38 15° 228° (SW) 2,138 5.2 -12.5°
Maximum altitude 23:15:28 34° 286° (WNW) 1,280 4.3 -11.6°
Drops below altitude 10° 23:19:58 10° 352° (N) 2,286 6.2 -10.6°
Sets 23:22:28 0° 2° (N) 3,236 7.1 -10.1°
